Location: Cisewo
(53.3833°N, 14.9000°E)
Time: 10:56:06
(UTC+00:00)

Cosmos 1666 Rocket - Pass Details

Date: 18 April 2021
Orbit: 604 x 633 km, 82.5° (Epoch: 15 May)

Event Time Altitude Azimuth Distance (km) Brightness Sun altitude
Rises 22:35:18 0° 346° (NNW) 2,943 8.4 -25.2°
Reaches altitude 10° 22:37:34 10° 344° (NNW) 2,029 7.2 -25.3°
Enters shadow 22:41:43 63° 289° (WNW) 710 3.8 -25.3°
